Weather Roundup
Issued by NWS Springfield, MO

Home | Current Version | Previous Version | Text Only | Print | Product List | Glossary On
Versions: 1 2 3 4 5 6 7 8 9 10 11 12 13 14 15 16 17 18 19 20 21 22 23 24 25 26 27 28 29 30 31 32 33 34 35 36 37 38 39 40 41 42 43 44 45 46 47 48 49 50
000
NZUS99 KSGF 202257
HRRSGF

HOURLY WEATHER
NATIONAL WEATHER SERVICE SPRINGFIELD MO
500 PM CST SAT JAN 20 2018

......SGF CWA......

CITY           SKY/WX    TMP DP  RH WIND       PRES   REMARKS
SPRINGFIELD    CLEAR     60  43  53 S13       29.87R
JOPLIN         CLEAR     63  47  55 S16       29.84R
ROLLA          CLEAR     55  44  66 S12G22    29.92S
BRANSON        PTCLDY    57  46  67 SE13G22   29.93R

......SURROUNDING SGF CWA......

CITY           SKY/WX    TMP DP  RH WIND       PRES   REMARKS
CHANUTE        CLEAR     60  46  59 S9        29.82R
PARSONS        CLEAR     63  47  55 S9        29.82R
COFFEYVILLE    CLEAR     64  48  56 S14       29.81R
EMPORIA        CLEAR     56  43  61 S10       29.78S
HARRISON AR    CLEAR     55  47  74 S13       29.94S

......KANSAS AND MISSOURI......

CITY           SKY/WX    TMP DP  RH WIND       PRES   REMARKS
KANSAS CTY INT CLOUDY    51  44  77 SE6       29.85R
SEDALIA        CLEAR     56  47  71 E6        29.88R
ST JOSEPH      CLOUDY    49  44  83 SE7       29.85R
ST LOUIS       CLOUDY    51  40  65 E8        29.95R
WICHITA        PTCLDY    61  43  51 S17       29.74S
TOPEKA         CLOUDY    50  46  86 E6        29.82R
OLATHE         PTCLDY    51  45  79 SE3       29.84R

......TENNESSEE......

CITY           SKY/WX    TMP DP  RH WIND       PRES   REMARKS
MEMPHIS        NOT AVBL
NASHVILLE      FAIR      58  32  37 S9        30.15R

......ARKANSAS.......

CITY           SKY/WX    TMP DP  RH WIND       PRES   REMARKS
FAYETTEVILLE   CLEAR     59  50  72 SE13G24   29.91R
FT SMITH       CLEAR     62  49  62 S10       29.93R
LITTLE ROCK    CLOUDY    59  54  83 SE6       30.04S

......OKLAHOMA.......

CITY           SKY/WX    TMP DP  RH WIND       PRES   REMARKS
TULSA          CLEAR     68  49  50 S23G30    29.79R
PONCA CITY     CLEAR     65  41  41 S10       29.76S
MCALESTER      CLEAR     63  51  65 S15G31    29.87R
OKLAHOMA CITY  PTCLDY    67  38  34 S21       29.77R

......IOWA............

CITY           SKY/WX    TMP DP  RH WIND       PRES   REMARKS
DES MOINES     NOT AVBL
QUAD CITIES    CLOUDY    43  37  79 SE3       29.92S

......ILLINOIS........

CITY           SKY/WX    TMP DP  RH WIND       PRES   REMARKS
QUINCY         NOT AVBL
CHICAGO        FAIR      42  33  70 SW5       29.95R



USA.gov is the U.S. government's official web portal to all federal, state and local government web resources and services.